FW0639 Weather Reports


Display with metric or nautical units.
time (UTC)temp
F
wind
direction
speed
MPH
gust
MPH
rain 1hr
in
rain 24hr
in
rain mn
in
humidity
%
barometer
mb
20260905102550 51 336 0.0 0.0 0.00 0.00 0.00 66 1011.5
20260905100427 53 334 0.0 0.0 0.00 0.00 0.00 63 1011.2
20260905094211 54 334 0.0 0.0 0.00 0.00 0.00 59 1010.9
20260905093148 55 333 0.0 0.0 0.00 0.00 0.00 58 1011.0
20260905092155 56 333 0.0 0.0 0.00 0.00 0.00 57 1011.1
20260905091202 56 333 0.0 2.0 0.00 0.00 0.00 57 1011.2
20260905090155 57 332 0.0 0.0 0.00 0.00 0.00 56 1011.1
20260905085137 57 332 0.0 0.0 0.00 0.00 0.00 57 1011.1
20260905084110 57 332 0.0 3.0 0.00 0.00 0.00 56 1011.4
20260905083123 57 332 0.0 0.0 0.00 0.00 0.00 56 1011.1
20260905082127 57 332 0.0 0.0 0.00 0.00 0.00 56 1011.0
20260905081119 58 332 0.0 0.0 0.00 0.00 0.00 56 1010.8
20260905080106 58 332 0.0 0.0 0.00 0.00 0.00 56 1011.4
20260905075111 57 332 1.0 7.0 0.00 0.00 0.00 55 1011.7
20260905074118 57 332 0.0 2.0 0.00 0.00 0.00 56 1011.5
20260905073051 57 332 0.0 0.0 0.00 0.00 0.00 56 1011.2
20260905072046 57 332 0.0 0.0 0.00 0.00 0.00 56 1011.0
20260905071058 57 332 0.0 3.0 0.00 0.00 0.00 56 1011.2
20260905070049 57 332 0.0 2.0 0.00 0.00 0.00 57 1011.0
20260905065034 57 332 0.0 0.0 0.00 0.00 0.00 60 1010.8
20260905064018 57 332 0.0 0.0 0.00 0.00 0.00 57 1011.0
20260905063006 57 332 0.0 0.0 0.00 0.00 0.00 58 1010.3
20260905061952 58 332 0.0 0.0 0.00 0.00 0.00 55 1010.8
20260905060935 58 332 0.0 0.0 0.00 0.00 0.00 55 1010.5
20260905055936 58 332 0.0 1.0 0.00 0.00 0.00 55 1010.0
20260905055000 57 332 0.0 3.0 0.00 0.00 0.00 56 1010.5
20260905053933 57 332 0.0 0.0 0.00 0.00 0.00 59 1009.8
20260905052859 57 332 0.0 0.0 0.00 0.00 0.00 59 1009.7
20260905051913 57 332 0.0 2.0 0.00 0.00 0.00 59 1009.6
20260905050924 57 332 0.0 0.0 0.00 0.00 0.00 60 1009.3
20260905045907 58 332 0.0 0.0 0.00 0.00 0.00 58 1009.6
20260905043759 59 332 0.0 2.0 0.00 0.00 0.00 56 1009.4
20260905042756 60 332 0.0 0.0 0.00 0.00 0.00 55 1008.9
20260905041745 61 332 0.0 1.0 0.00 0.00 0.00 51 1008.9
20260905040712 62 332 0.0 0.0 0.00 0.00 0.00 50 1009.0
20260905035735 63 332 0.0 0.0 0.00 0.00 0.00 50 1008.9
20260905034723 64 332 0.0 0.0 0.00 0.00 0.00 46 1008.7
20260905033712 65 332 0.0 0.0 0.00 0.00 0.00 45 1008.4
20260905032707 65 332 0.0 1.0 0.00 0.00 0.00 44 1008.1
20260905031646 66 332 0.0 2.0 0.00 0.00 0.00 44 1008.0
20260905030637 66 332 0.0 0.0 0.00 0.00 0.00 43 1008.0
20260905025648 66 332 0.0 0.0 0.00 0.00 0.00 43 1008.0
20260905024712 66 332 0.0 0.0 0.00 0.00 0.00 44 1007.8
20260905023646 67 332 0.0 0.0 0.00 0.00 0.00 43 1007.8
20260905021505 68 332 0.0 0.0 0.00 0.00 0.00 42 1007.3
20260905020509 69 332 0.0 1.0 0.00 0.00 0.00 40 1007.2
20260905015512 69 332 0.0 0.0 0.00 0.00 0.00 40 1007.0
20260905013307 71 332 0.0 0.0 0.00 0.00 0.00 38 1006.4
20260905012236 72 332 0.0 2.0 0.00 0.00 0.00 36 1006.3
20260905011248 73 332 0.0 4.0 0.00 0.00 0.00 35 1006.1
20260905005119 75 332 1.0 7.0 0.00 0.00 0.00 32 1005.7
20260905004110 75 340 1.0 6.0 0.00 0.00 0.00 34 1005.5
20260905003112 75 340 1.0 4.0 0.00 0.00 0.00 35 1005.6
20260905000939 75 342 1.0 9.0 0.00 0.00 0.00 33 1005.4
20260904235921 75 345 1.0 9.0 0.00 0.00 0.00 35 1005.2
20260904234945 76 342 1.0 7.0 0.00 0.00 0.00 35 1005.1
20260904233948 76 347 1.0 7.0 0.00 0.00 0.00 33 1005.0
20260904232922 77 3 1.0 5.0 0.00 0.00 0.00 32 1004.9
20260904230843 78 280 1.0 7.0 0.00 0.00 0.00 33 1004.7
20260904225809 79 49 2.0 10.0 0.00 0.00 0.00 31 1004.7
20260904224746 79 128 2.0 10.0 0.00 0.00 0.00 32 1004.5
20260904223801 79 272 1.0 8.0 0.00 0.00 0.00 33 1004.5
20260904220558 80 148 1.0 9.0 0.00 0.00 0.00 32 1004.1
20260904215621 80 336 2.0 6.0 0.00 0.00 0.00 30 1004.0
20260904214620 80 328 1.0 8.0 0.00 0.00 0.00 28 1003.8
20260904213614 80 359 2.0 8.0 0.00 0.00 0.00 31 1003.7
20260904212541 80 328 1.0 9.0 0.00 0.00 0.00 30 1003.7
20260904211527 80 195 1.0 9.0 0.00 0.00 0.00 30 1003.6
20260904210546 81 178 2.0 8.0 0.00 0.00 0.00 29 1003.5
20260904205543 81 344 1.0 8.0 0.00 0.00 0.00 30 1003.4
20260904204602 81 340 1.0 8.0 0.00 0.00 0.00 30 1003.3
20260904203548 81 289 1.0 4.0 0.00 0.00 0.00 31 1003.2
20260904202544 81 288 1.0 6.0 0.00 0.00 0.00 29 1003.3
20260904201513 82 279 1.0 6.0 0.00 0.00 0.00 29 1003.4
20260904195313 83 328 1.0 4.0 0.00 0.00 0.00 27 1003.2
20260904194311 82 342 0.0 3.0 0.00 0.00 0.00 29 1003.2
20260904191016 81 161 1.0 7.0 0.00 0.00 0.00 30 1003.3
20260904184917 82 143 2.0 11.0 0.00 0.00 0.00 28 1003.1
20260904183910 83 9 2.0 20.0 0.00 0.00 0.00 26 1003.0
20260904182842 85 124 5.0 20.0 0.00 0.00 0.00 20 1002.9
20260904181902 86 161 5.0 17.0 0.00 0.00 0.00 20 1002.7
20260904180841 86 213 5.0 13.0 0.00 0.00 0.00 20 1002.7
20260904175843 87 173 5.0 13.0 0.00 0.00 0.00 18 1002.7
20260904174828 86 129 4.0 12.0 0.00 0.00 0.00 19 1002.5
20260904173842 86 140 6.0 15.0 0.00 0.00 0.00 17 1002.4
20260904172838 85 123 4.0 15.0 0.00 0.00 0.00 19 1002.2
20260904171857 83 78 1.0 9.0 0.00 0.00 0.00 23 1002.1
20260904165805 76 52 0.0 4.0 0.00 0.00 0.00 36 1002.1
20260904164749 74 52 0.0 0.0 0.00 0.00 0.00 44 1002.1
20260904163733 74 52 0.0 0.0 0.00 0.00 0.00 50 1002.0
20260904162720 73 52 0.0 1.0 0.00 0.00 0.00 47 1002.0
20260904161709 71 51 0.0 0.0 0.00 0.00 0.00 47 1002.1
20260904155617 69 51 0.0 0.0 0.00 0.00 0.00 50 1002.1
20260904153457 69 52 0.0 0.0 0.00 0.00 0.00 47 1002.4
20260904152459 70 52 0.0 2.0 0.00 0.00 0.00 48 1002.4
20260904151448 70 52 1.0 7.0 0.00 0.00 0.00 46 1002.4
20260904150444 69 51 0.0 3.0 0.00 0.00 0.00 45 1002.4
20260904145421 69 346 1.0 7.0 0.00 0.00 0.00 44 1002.3
20260904144428 69 334 2.0 6.0 0.00 0.00 0.00 44 1002.4
20260904143424 67 333 1.0 6.0 0.00 0.00 0.00 44 1002.3
20260904141251 65 333 1.0 7.0 0.00 0.00 0.00 48 1002.2
20260904135200 65 333 0.0 0.0 0.00 0.00 0.00 50 1002.3
20260904134145 65 333 0.0 0.0 0.00 0.00 0.00 46 1002.4
20260904133208 65 333 0.0 2.0 0.00 0.00 0.00 45 1002.3
20260904132145 65 333 0.0 2.0 0.00 0.00 0.00 45 1002.3
20260904131138 65 333 0.0 6.0 0.00 0.00 0.00 44 1002.5
20260904130119 65 333 1.0 6.0 0.00 0.00 0.00 42 1002.4
20260904123958 65 335 0.0 7.0 0.00 0.00 0.00 39 1002.4
20260904122949 65 335 1.0 11.0 0.00 0.00 0.00 39 1002.5
20260904122013 65 335 1.0 11.0 0.00 0.00 0.00 40 1002.7
20260904121016 65 335 1.0 10.0 0.00 0.00 0.00 39 1002.8
20260904114854 65 334 3.0 12.0 0.00 0.00 0.00 38 1003.2
20260904113850 64 335 2.0 12.0 0.00 0.00 0.00 39 1003.2
20260904112902 65 336 0.0 4.0 0.00 0.00 0.00 39 1003.4
20260904111836 65 336 0.0 4.0 0.00 0.00 0.00 37 1003.5
20260904110835 65 336 1.0 4.0 0.00 0.00 0.00 37 1003.5
20260904104727 65 336 2.0 4.0 0.00 0.00 0.00 37 1003.9